Location: Newark
(45.9456°N, 15.4064°E)
Time: 09:03:46
(UTC+00:00)

Tiros 1 - Visible Passes

Search period start: 25 January 2020 00:00
Search period end: 04 February 2020 00:00
Orbit: 630 x 664 km, 48.4° (Epoch: 24 January)

Date Brightness Start Highest point End Pass type
(mag) Time Alt. Az. Time Alt. Az. Time Alt. Az.
25 Jan 8.9 17:48:55 10° W 17:53:02 29° SW 17:57:07 10° SSE visible
26 Jan 7.9 16:32:30 10° WNW 16:37:10 55° SSW 16:41:51 10° SE visible
26 Jan 9.9 18:16:01 10° W 18:18:39 15° SW 18:21:17 10° SSW visible
27 Jan 9.0 16:58:49 10° W 17:03:00 31° SW 17:07:12 10° SSE visible
28 Jan 10.0 17:25:47 10° W 17:28:39 16° SW 17:31:31 10° S visible
30 Jan 10.0 16:35:34 10° W 16:38:38 17° SW 16:41:43 10° S visible
